Content
SEND FEEDBACK

Daily
Averages
Monthly
Summary
Switzerland

GENEVA, SWITZERLAND


Home > Europe > Switzerland
Elevation: 1364 feet     Latitude: 46 15N     Longitude: 006 08E

WEATHER
 
SELECT A DAY
Number of Records: 305,383;   Date Range: 7/1/96 - 7/20/14
 
SHARE

PRINT THIS DATA

[ ← Previous Day ]
WEATHER ALMANAC - FEBRUARY 17, 2013
[ Next Day → ]
[ °C ]   °F
Weather ElementAverageHighLow
Temperature35.8 °F39.2 °F (1:50 pm)32 °F (11:50 pm)
Dewpoint28.2 °F32 °F (5:20 am)26 °F (12:00 pm)
Humidity72 %93 % (5:20 am)51 % (5:00 pm)
Barometer30.10 in30.22 in (1:00 am)30.04 in (3:20 pm)
Wind Speed6.8 mph13.8 mph (6:50 am)
Weather ElementAverage
Visibility6.5 mi
Wind DirectionNE (44.4 °)

Weather ElementTotal
Precipitation---
Heating Degree Days29.4 (Base 65)
Averaged from 62 records on February 17, 2013
WEATHER CONDITIONS BREAKOUT
WIND DIRECTION BREAKOUT
WEATHER BY HOUR - FEBRUARY 17, 2013
[ °C ]   °F
Local TimeTemperatureDewpointHumidityBarometerVisibilityWind DirectionWind SpeedGust SpeedPrecipitationEventsConditions
12:20 AM33.8 °F30.2 °F87 %30.15 in6.2 miCalmMostly Cloudy
12:50 AM33.8 °F30.2 °F87 %30.15 in6.2 miVariable1.2 mphMostly Cloudy
1:00 AM33.0 °F29.0 °F81 %30.22 in9.0 miNNW (330°)1.2 mphMist
1:20 AM33.8 °F30.2 °F87 %30.15 in6.2 miCalmMostly Cloudy
1:50 AM33.8 °F30.2 °F87 %30.12 in6.2 miCalmMostly Cloudy
2:00 AM33.0 °F30.0 °F82 %30.21 inNorth1.2 mph
2:50 AM33.8 °F30.2 °F87 %30.12 in6.2 miCalmMostly Cloudy
3:00 AM34.0 °F30.0 °F80 %30.19 inNorth (10°)1.2 mph
3:20 AM33.8 °F30.2 °F87 %30.12 in6.2 miVariable2.3 mphMostly Cloudy
3:50 AM33.8 °F30.2 °F87 %30.12 in6.2 miNE (50°)2.3 mphMostly Cloudy
4:20 AM33.8 °F30.2 °F87 %30.12 in6.2 miENE (60°)1.2 mphMostly Cloudy
4:50 AM33.8 °F30.2 °F87 %30.12 in6.2 miNorth (350°)1.2 mphMostly Cloudy
5:00 AM34.0 °F31.0 °F82 %30.18 inNorth2.3 mph
5:20 AM33.8 °F32.0 °F93 %30.12 in6.2 miNNE (20°)1.2 mphMostly Cloudy
5:50 AM33.8 °F30.2 °F87 %30.09 in6.2 miNE (40°)6.9 mphMostly Cloudy
6:00 AM35.0 °F30.0 °F74 %30.18 inNE (50°)10.4 mph
6:20 AM35.6 °F30.2 °F81 %30.12 in6.2 miNE (50°)11.5 mphMostly Cloudy
6:50 AM35.6 °F30.2 °F81 %30.12 in6.2 miNE (50°)13.8 mphMostly Cloudy
7:00 AM35.0 °F29.0 °F72 %30.18 in7.0 miNE (40°)13.8 mphMist
7:20 AM33.8 °F30.2 °F87 %30.12 in5.6 miNE (40°)9.2 mphMostly Cloudy
7:50 AM33.8 °F30.2 °F87 %30.12 in6.2 miNE (40°)8.1 mphMostly Cloudy
8:00 AM34.0 °F28.0 °F72 %30.18 inNE (40°)10.4 mph
9:20 AM35.6 °F30.2 °F81 %30.12 in6.2 miNE (50°)8.1 mphMostly Cloudy
9:50 AM35.6 °F28.4 °F75 %30.12 in6.2 miENE (70°)8.1 mphMostly Cloudy
10:50 AM35.6 °F26.6 °F70 %30.12 in6.2 miENE (60°)9.2 mphMostly Cloudy
11:00 AM36.0 °F27.0 °F59 %30.17 inNE (50°)9.2 mph
11:20 AM37.4 °F26.6 °F65 %30.09 in6.2 miENE (60°)8.1 mphMostly Cloudy
11:50 AM37.4 °F26.6 °F65 %30.09 in6.2 miNE (40°)10.4 mphMostly Cloudy
12:00 PM37.0 °F26.0 °F53 %30.17 inNE (40°)8.1 mph
12:20 PM37.4 °F28.4 °F70 %30.09 in6.2 miNE (50°)9.2 mphMostly Cloudy
12:50 PM37.4 °F28.4 °F70 %30.09 in6.2 miNNE (20°)8.1 mphMostly Cloudy
1:00 PM37.0 °F27.0 °F55 %30.14 in11.0 miNNE (30°)10.4 mph
1:20 PM37.4 °F28.4 °F70 %30.09 in6.2 miNE (50°)10.4 mphMostly Cloudy
1:50 PM39.2 °F26.6 °F61 %30.06 in6.2 miNE (50°)10.4 mphScattered Clouds
2:00 PM38.0 °F27.0 °F52 %30.13 inNE (50°)13.8 mph
2:20 PM39.2 °F26.6 °F61 %30.06 in6.2 miNE (50°)10.4 mphScattered Clouds
2:50 PM39.2 °F28.4 °F65 %30.06 in6.2 miNE (50°)11.5 mphPartly Cloudy
3:00 PM38.0 °F27.0 °F54 %30.10 inNNE (30°)11.5 mph
3:20 PM39.2 °F26.6 °F61 %30.04 in6.2 miNE (50°)10.4 mphPartly Cloudy
3:50 PM39.2 °F28.4 °F65 %30.04 in6.2 miNE (40°)10.4 mphPartly Cloudy
4:20 PM39.2 °F28.4 °F65 %30.04 in6.2 miNE (40°)8.1 mphPartly Cloudy
4:50 PM39.2 °F26.6 °F61 %30.04 in6.2 miNNE (30°)9.2 mphScattered Clouds
5:00 PM38.0 °F26.0 °F51 %30.09 inNE (40°)11.5 mph
5:20 PM37.4 °F28.4 °F70 %30.04 in6.2 miNNE (30°)8.1 mphMostly Cloudy
5:50 PM37.4 °F28.4 °F70 %30.04 in6.2 miNNE (20°)6.9 mphMostly Cloudy
6:00 PM37.0 °F28.0 °F59 %30.09 inNNE (20°)6.9 mph
6:20 PM37.4 °F28.4 °F70 %30.04 in6.2 miNNE (20°)6.9 mphMostly Cloudy
6:50 PM35.6 °F28.4 °F75 %30.04 in6.2 miNorth (10°)5.8 mphMostly Cloudy
7:00 PM36.0 °F27.0 °F58 %30.10 in12.0 miNorth (10°)6.9 mphMostly Cloudy
7:20 PM35.6 °F26.6 °F70 %30.04 in6.2 miNorth (10°)4.6 mphMostly Cloudy
7:50 PM35.6 °F26.6 °F70 %30.04 in6.2 miNorth (10°)5.8 mphMostly Cloudy
8:00 PM36.0 °F26.0 °F57 %30.11 inNorth (10°)5.8 mph
8:20 PM35.6 °F26.6 °F70 %30.04 in6.2 miNorth (360°)5.8 mphMostly Cloudy
8:50 PM35.6 °F26.6 °F70 %30.04 in6.2 miNorth (10°)5.8 mphMostly Cloudy
9:00 PM36.0 °F27.0 °F58 %30.10 inNorth (10°)6.9 mph
9:20 PM35.6 °F26.6 °F70 %30.04 in6.2 miNNE (20°)6.9 mphMostly Cloudy
9:50 PM35.6 °F26.6 °F70 %30.04 in6.2 miNNE (20°)8.1 mphMostly Cloudy
10:20 PM35.6 °F26.6 °F70 %30.04 in6.2 miNNE (20°)6.9 mphMostly Cloudy
10:50 PM35.6 °F26.6 °F70 %30.04 in6.2 miNNE (20°)4.6 mphMostly Cloudy
11:00 PM35.0 °F26.0 °F60 %30.11 inNNE (20°)4.6 mph
11:20 PM33.8 °F26.6 °F75 %30.04 in6.2 miNorth (10°)4.6 mphScattered Clouds
11:50 PM32.0 °F26.6 °F80 %30.04 in6.2 miVariable3.5 mphScattered Clouds
Hourly data recorded from LSGG, located miles away from Geneva, Switzerland







STORIES FROM OUR PARTNERS